Weather History for Lamoni, IA

Change the Weather History Date:

Friday, August 30, 2013

  Actual Average Record
Temperature  
Mean Temperature 87 °F 71 °F  
Max Temperature 101 °F 82 °F 101 °F (2013)
Min Temperature 72 °F 61 °F 54 °F (1967)
Degree Days  
Heating Degree Days 0 0  
Month to date heating degree days 3 0  
Since 1 June heating degree days 41 21  
Since 1 July heating degree days 9 2  
Cooling Degree Days 22 7  
Month to date cooling degree days 308 269  
Year to date cooling degree days 857 832  
Since 1 June cooling degree days 781 778  
Growing Degree Days 36 (Base 50)    
Moisture  
Dew Point 65 °F    
Average Humidity 58    
Maximum Humidity 90    
Minimum Humidity 26    
Precipitation  
Precipitation 0.00 in 0.12 in 1.72 in (1980)
Month to date precipitation 0.31 3.95  
Sea Level Pressure  
Sea Level Pressure 29.86 in    
Wind  
Wind Speed 7 mph (SW)    
Max Wind Speed 17 mph    
Max Gust Speed 22 mph    
Visibility 10 miles    
Events      
T = Trace of Precipitation, MM = Missing Value Source: NWS Daily Summary

Daily Weather History Graph

Daily Weather History Graph

Search for Another Location

Airport:

Trip Planner

Search our weather history database for the weather conditions in past years. The results will help you decide how hot, cold, wet, or windy it might be!

Date:

Astronomy

Aug. 30, 2013 Rise Set
Actual Time 6:41 AM CDT 7:50 PM CDT
Civil Twilight 6:12 AM CDT 8:18 PM CDT
Nautical Twilight 5:39 AM CDT 8:52 PM CDT
Astronomical Twilight 5:03 AM CDT 9:27 PM CDT
Moon 1:19 AM CDT (8/30) 4:07 PM CDT (8/30)
Length of Visible Light 14h 05m
Length of Day
13h 09m
Waning Crescent, 29% of the Moon is Illuminated
Aug 30
Waning Crescent
Sep 5
New
Sep 12
First Quarter
Sep 19
Full
Sep 26
Last Quarter

Hourly Weather History & Observations

Time (CDT) Temp. Heat Index Dew Point Humidity Pressure Visibility Wind Dir Wind Speed Gust Speed Precip Events Conditions
12:53 AM 77.0 °F - 69.1 °F 76% 29.93 in 10.0 mi South 6.9 mph - N/A   Clear
1:53 AM 75.9 °F - 69.1 °F 79% 29.92 in 10.0 mi South 6.9 mph - N/A   Clear
2:53 AM 75.9 °F - 69.1 °F 79% 29.92 in 10.0 mi South 5.8 mph - N/A   Clear
3:53 AM 73.9 °F - 69.1 °F 85% 29.91 in 10.0 mi South 5.8 mph - N/A   Clear
4:53 AM 73.0 °F - 69.1 °F 87% 29.90 in 10.0 mi South 3.5 mph - N/A   Clear
5:53 AM 72.0 °F - 68.0 °F 87% 29.90 in 10.0 mi SSW 5.8 mph - N/A   Mostly Cloudy
6:53 AM 72.0 °F - 68.0 °F 87% 29.90 in 10.0 mi SSW 6.9 mph - N/A   Mostly Cloudy
7:53 AM 73.9 °F - 69.1 °F 85% 29.91 in 10.0 mi SSW 5.8 mph - N/A   Clear
8:53 AM 80.1 °F 82.9 °F 69.1 °F 69% 29.91 in 10.0 mi SW 9.2 mph - N/A   Clear
9:53 AM 86.0 °F 89.4 °F 68.0 °F 55% 29.90 in 10.0 mi WSW 9.2 mph - N/A   Clear
10:53 AM 90.0 °F 92.4 °F 66.0 °F 45% 29.89 in 10.0 mi SW 6.9 mph - N/A   Clear
11:53 AM 93.9 °F 96.1 °F 64.9 °F 38% 29.88 in 10.0 mi West 10.4 mph - N/A   Clear
12:53 PM 96.1 °F 98.3 °F 64.0 °F 35% 29.86 in 10.0 mi SW 6.9 mph - N/A   Clear
1:53 PM 98.1 °F 98.6 °F 61.0 °F 29% 29.85 in 10.0 mi West 11.5 mph - N/A   Clear
2:53 PM 100.0 °F 100.2 °F 59.0 °F 26% 29.83 in 10.0 mi SW 10.4 mph 19.6 mph N/A   Clear
3:53 PM 100.0 °F 100.7 °F 60.1 °F 27% 29.82 in 10.0 mi West 9.2 mph 19.6 mph N/A   Clear
4:53 PM 100.0 °F 100.7 °F 60.1 °F 27% 29.81 in 10.0 mi WSW 12.7 mph 16.1 mph N/A   Clear
5:53 PM 98.1 °F 97.7 °F 59.0 °F 27% 29.80 in 10.0 mi WSW 9.2 mph - N/A   Clear
6:53 PM 95.0 °F 95.6 °F 62.1 °F 33% 29.80 in 10.0 mi West 6.9 mph - N/A   Clear
7:53 PM 89.1 °F 90.3 °F 64.0 °F 43% 29.80 in 10.0 mi SW 4.6 mph - N/A   Clear
8:53 PM 87.1 °F 88.3 °F 64.0 °F 46% 29.80 in 10.0 mi WSW 5.8 mph - N/A   Clear
9:53 PM 84.9 °F 86.1 °F 64.0 °F 49% 29.79 in 10.0 mi WSW 3.5 mph - N/A   Clear
10:53 PM 80.1 °F 81.9 °F 64.9 °F 60% 29.80 in 10.0 mi NW 4.6 mph - N/A   Clear
11:53 PM 80.1 °F 82.3 °F 66.9 °F 64% 29.81 in 10.0 mi NNW 4.6 mph - N/A   Partly Cloudy